Location: Unspecified
(0.0000°N, 0.0000°E)
Time: 10:29:31
(UTC-05:00)

Okean 3 - Visible Passes

Search period start: 22 May 2017 00:00
Search period end: 01 June 2017 00:00
Orbit: 578 x 602 km, 82.5° (Epoch: 21 May)

Date Brightness Start Highest point End Pass type
(mag) Time Alt. Az. Time Alt. Az. Time Alt. Az.
22 May 3.3 13:41:06 10° S 13:45:17 82° E 13:49:28 10° N visible
23 May 4.2 13:49:26 10° SSW 13:53:31 55° W 13:57:36 10° N visible
24 May 5.4 13:58:02 10° SSW 14:01:44 31° W 14:05:26 10° NNW visible
25 May 7.0 00:27:25 10° ENE 00:28:53 12° E 00:30:22 10° ESE visible
25 May 6.4 14:07:04 10° SW 14:09:58 18° W 14:12:52 10° NW visible
26 May 6.9 14:17:23 10° W 14:18:11 10° W 14:19:00 10° WNW visible
30 May 6.9 23:40:09 10° ENE 23:41:17 11° E 23:42:24 10° ESE visible
31 May 6.4 13:19:20 10° SW 13:22:20 19° W 13:25:22 10° NW visible
31 May 6.4 23:46:31 10° NE 23:49:31 19° E 23:52:31 10° SE visible
